This demonstration page uses our WeatherBlox Daily Observations layout. Learn more.

Left ArrowRight Arrow

40.92945, -100.16068

Hourly Observations for February 5, 2020

Temp ( °F °C ) Dew Point ( °F °C ) Humidity (%) Winds ( mph kmh ) Pressure ( in mb ) Visibility ( mi km ) Precip ( " mm )
12:15 am 00:15 Cloudy with Light Snow 22 -5.7 19 -7 91 91 N 5 7 30.33 1027 3 5 N/A
12:35 am 00:35 Cloudy with Light Snow 21 -6 19 -7.5 89 89 N N/A 30.32 1027 3 4 N/A
12:55 am 00:55 Cloudy with Light Snow 21 -6.1 18 -7.8 88 88 N N/A 30.31 1026 3 4 N/A
1:15 am 01:15 Cloudy with Light Snow 21 -6.3 18 -7.8 89 89 N N/A 30.31 1026 3 5 N/A
1:35 am 01:35 Cloudy with Snow 20 -6.5 18 -7.7 91 91 N N/A 30.30 1026 1 1 N/A
1:55 am 01:55 Cloudy with Light Snow 20 -6.5 19 -7.4 93 93 N N/A 30.29 1026 1 2 N/A
2:15 am 02:15 Cloudy with Light Snow 20 -6.6 19 -7.5 93 93 N N/A 30.30 1026 3 5 N/A
2:35 am 02:35 Cloudy with Light Snow 20 -6.8 18 -7.6 94 94 N N/A 30.29 1026 7 11 N/A
2:55 am 02:55 Cloudy with Light Snow 20 -6.7 19 -7.5 94 94 N N/A 30.28 1025 5 8 N/A
3:15 am 03:15 Cloudy 19 -7 18 -7.6 96 96 N N/A 30.28 1025 10 16 N/A
3:35 am 03:35 Cloudy with Light Snow 19 -7 18 -7.6 96 96 N N/A 30.26 1025 5 8 N/A
3:55 am 03:55 Cloudy with Light Snow 19 -7.1 18 -7.8 95 95 N N/A 30.27 1025 7 11 N/A
4:15 am 04:15 Cloudy with Light Snow 19 -7.2 18 -8 94 94 N N/A 30.26 1025 4 6 N/A
4:35 am 04:35 Mostly Cloudy 19 -7.5 17 -8.1 96 96 N N/A 30.25 1025 10 16 N/A
4:55 am 04:55 Mostly Cloudy with Light Snow 18 -8 17 -8.5 96 96 N N/A 30.27 1025 7 11 N/A
5:15 am 05:15 Cloudy with Light Snow 18 -7.8 17 -8.4 96 96 N N/A 30.27 1025 7 11 N/A
5:35 am 05:35 Cloudy 19 -7.2 18 -7.9 95 95 N N/A 30.25 1024 10 16 N/A
5:55 am 05:55 Cloudy 19 -7 18 -7.7 95 95 N N/A 30.25 1024 10 16 N/A
6:15 am 06:15 Cloudy 19 -7.1 18 -8 93 93 N N/A 30.24 1024 10 16 N/A
6:35 am 06:35 Partly Cloudy 18 -7.7 17 -8.3 96 96 N N/A 30.24 1024 10 16 N/A
6:55 am 06:55 Clear 16 -8.9 15 -9.5 95 95 N N/A 30.24 1024 10 16 N/A
7:15 am 07:15 Clear 16 -9.1 14 -9.8 95 95 NNE 3 6 30.24 1024 10 16 N/A
7:35 am 07:35 Clear 14 -10 13 -10.7 95 95 N N/A 30.25 1024 10 16 N/A
7:55 am 07:55 Sunny 12 -11.3 10 -12.3 92 92 N N/A 30.26 1025 7 11 N/A
8:15 am 08:15 Mostly Cloudy with Freezing Fog 11 -11.7 9 -12.9 91 91 N N/A 30.27 1025 1 1 N/A
8:35 am 08:35 Partly Cloudy with Mist and Fog 12 -11 10 -12 92 92 N N/A 30.26 1025 2 2 N/A
8:55 am 08:55 Partly Cloudy 14 -9.9 13 -10.8 93 93 N N/A 30.25 1024 7 11 N/A
9:15 am 09:15 Sunny 16 -8.9 15 -9.7 94 94 N N/A 30.23 1024 7 11 N/A
9:35 am 09:35 Sunny 18 -8 16 -8.8 94 94 N N/A 30.22 1023 10 16 N/A
9:55 am 09:55 Sunny 19 -7 18 -7.9 93 93 N N/A 30.20 1023 10 16 N/A
10:15 am 10:15 Sunny 20 -6.6 18 -7.6 93 93 N N/A 30.19 1022 10 16 N/A
10:35 am 10:35 Sunny 21 -6 19 -7.1 92 92 N N/A 30.19 1022 10 16 N/A
10:55 am 10:55 Sunny 23 -5.1 19 -7.2 85 85 N N/A 30.18 1022 10 16 N/A
11:15 am 11:15 Partly Cloudy 24 -4.5 19 -7.2 82 82 N N/A 30.17 1022 10 16 N/A
11:35 am 11:35 Mostly Cloudy 23 -4.8 19 -7.1 84 84 NW 5 7 30.16 1021 10 16 N/A
11:55 am 11:55 Cloudy 25 -4 20 -6.4 84 84 N N/A 30.14 1021 10 16 N/A
12:15 pm 12:15 Cloudy 25 -3.7 20 -6.9 79 79 WSW 5 7 30.12 1020 10 16 N/A
12:35 pm 12:35 Cloudy 26 -3.4 20 -6.6 79 79 SW 9 15 30.10 1019 10 16 N/A
12:55 pm 12:55 Cloudy 26 -3.1 20 -6.4 78 78 SW 8 13 30.09 1019 10 16 N/A
1:15 pm 13:15 Cloudy 27 -3 20 -6.9 75 75 SW 12 19 30.07 1018 10 16 N/A
1:35 pm 13:35 Mostly Cloudy 27 -2.7 21 -6.2 77 77 SW 10 17 30.04 1017 10 16 N/A
1:55 pm 13:55 Partly Cloudy 27 -2.9 20 -6.5 77 77 WSW 7 11 30.04 1017 10 16 N/A
2:15 pm 14:15 Mostly Cloudy 26 -3.1 19 -7.5 72 72 WSW 9 15 30.03 1017 10 16 N/A
2:35 pm 14:35 Mostly Cloudy 27 -2.9 20 -6.9 74 74 SW 9 15 30.02 1016 10 16 N/A
2:55 pm 14:55 Mostly Cloudy 28 -2.1 20 -6.6 72 72 WSW 9 15 29.99 1015 10 16 N/A
3:15 pm 15:15 Partly Cloudy 28 -2.1 19 -7.2 68 68 WSW 8 13 29.98 1015 10 16 N/A
3:35 pm 15:35 Partly Cloudy 30 -1.3 19 -7.1 65 65 SW 9 15 29.96 1015 10 16 N/A
3:55 pm 15:55 Partly Cloudy 30 -0.9 19 -7.1 63 63 SW 9 15 29.95 1014 10 16 N/A
4:15 pm 16:15 Partly Cloudy 30 -0.9 18 -7.7 60 60 WSW 9 15 29.95 1014 10 16 N/A
4:35 pm 16:35 Sunny 29 -1.5 18 -8 62 62 WSW 6 9 29.94 1014 10 16 N/A
4:55 pm 16:55 Partly Cloudy 30 -1 17 -8.2 59 59 SW 12 19 29.93 1013 10 16 N/A
5:15 pm 17:15 Sunny 30 -1 18 -7.8 60 60 SW 7 11 29.92 1013 10 16 N/A
5:35 pm 17:35 Sunny 30 -1.3 19 -7.4 64 64 SSW 7 11 29.92 1013 10 16 N/A
5:55 pm 17:55 Sunny 28 -2.1 20 -6.7 71 71 S 7 11 29.93 1013 10 16 N/A
6:15 pm 18:15 Clear 26 -3.2 19 -7 75 75 S 6 9 29.93 1013 10 16 N/A
6:35 pm 18:35 Clear 25 -3.8 19 -7.1 78 78 S 7 11 29.94 1014 10 16 N/A
6:55 pm 18:55 Clear 24 -4.7 19 -7.1 84 84 S 6 9 29.95 1014 10 16 N/A
7:15 pm 19:15 Clear 23 -5.1 19 -7.3 85 85 S 7 11 29.96 1014 10 16 N/A
7:35 pm 19:35 Clear 23 -5.2 19 -7.3 85 85 S 6 9 29.96 1015 10 16 N/A
7:55 pm 19:55 Clear 23 -5.2 19 -7.5 84 84 SSW 6 9 29.96 1015 10 16 N/A
8:15 pm 20:15 Clear 23 -5.1 18 -7.8 82 82 S 5 7 29.95 1014 10 16 N/A
8:35 pm 20:35 Clear 22 -5.4 18 -7.8 83 83 SSW 8 13 29.95 1014 10 16 N/A
8:55 pm 20:55 Clear 23 -5.1 17 -8.1 80 80 SSW 8 13 29.95 1014 10 16 N/A
9:15 pm 21:15 Clear 22 -5.5 17 -8.5 80 80 SSW 7 11 29.94 1014 10 16 N/A
9:35 pm 21:35 Clear 22 -5.3 17 -8.6 78 78 SSW 8 13 29.94 1014 10 16 N/A
9:55 pm 21:55 Clear 23 -5.2 16 -8.8 76 76 SSW 7 11 29.93 1013 10 16 N/A
10:15 pm 22:15 Clear 23 -5.2 16 -8.7 77 77 SSW 8 13 29.93 1013 10 16 N/A
10:35 pm 22:35 Clear 22 -5.7 16 -8.8 79 79 SSW 8 13 29.92 1013 10 16 N/A
10:55 pm 22:55 Clear 22 -5.8 16 -8.8 80 80 SSW 7 11 29.92 1013 10 16 N/A
11:15 pm 23:15 Clear 21 -5.9 16 -9 79 79 SSW 6 9 29.92 1013 10 16 N/A
11:35 pm 23:35 Clear 21 -6.3 16 -9.1 81 81 SW 5 7 29.92 1013 10 16 N/A
11:55 pm 23:55 Clear 19 -7.1 15 -9.5 83 83 SW 5 7 29.92 1013 10 16 N/A

Powered by AerisWeather